Location: Aulagny
(45.1643°N, 4.3096°E)
Time: 01:06:55
(UTC+00:00)

STARLINK-29 - Pass Details

Date: 21 October 2019
Orbit: 438 x 448 km, 53.0° (Epoch: 22 November)

Event Time Altitude Azimuth Distance (km) Brightness Sun altitude
Rises 17:21:04 0° 303° (WNW) 2,433 7.8 -6.5°
Reaches altitude 10° 17:23:18 10° 312° (NW) 1,563 6.5 -6.9°
Maximum altitude 17:26:35 36° 21° (NNE) 728 4.0 -7.5°
Enters shadow 17:29:45 11° 89° (E) 1,528 5.2 -8.0°
